Location: Bacharowice
(49.9333°N, 19.5833°E)
Time: 01:25:36
(UTC+00:00)

SOZ - Pass Details

Date: 28 September 2021
Orbit: 306 x 16685 km, 52.0° (Epoch: 24 October)

Event Time Altitude Azimuth Distance (km) Brightness Sun altitude
Rises 01:19:16 0° 217° (SW) 21,343 12.8 -30.5°
Enters shadow 01:27:11 - 218° (SW) 20,629 12.7 -29.5°
Exits shadow 02:05:43 16° 222° (SW) 15,439 12.0 -24.3°
Maximum altitude 02:55:46 74° 151° (SSE) 3,324 9.2 -16.9°
Drops below altitude 10° 03:05:13 10° 69° (ENE) 3,573 10.8 -15.5°
Sets 03:06:53 0° 67° (ENE) 4,078 11.6 -15.2°
